Regional Weather Roundup
Issued by NWS

Home | Current Version | Previous Version | Text Only | Print | Product List | Glossary Off
Versions: 1 2 3 4 5 6 7 8 9 10 11 12 13 14 15 16 17 18 19 20 21 22 23 24 25 26 27 28 29 30 31 32 33 34 35 36 37 38 39 40 41 42 43 44 45 46 47 48 49 50

000
ASUS43 KDTX 292010
RWRMI
MICHIGAN HOURLY REGIONAL WEATHER ROUNDUP
NATIONAL WEATHER SERVICE DETROIT/PONTIAC MI
400 PM EDT FRI AUG 29 2014

NOTE: "FAIR" INDICATES FEW OR NO CLOUDS BELOW 12,000 FEET WITH NO
SIGNIFICANT WEATHER AND/OR OBSTRUCTION TO VISIBILITY.

MIZ047>049-052>055-059>063-066>070-074>076-081>083-292100-
SOUTHEAST LOWER MICHIGAN

CITY           SKY/WX    TMP DP  RH WIND       PRES   REMARKS
ADRIAN         SUNNY     80  62  54 S8        30.06F
ALMA           CLOUDY    72  62  70 S6        30.03F
ANN ARBOR      MOSUNNY   78  59  51 SE9       30.06F
BAD AXE        PTSUNNY   73  60  65 S16       30.07F
DETROIT CITY   PTSUNNY   75  52  44 SE10      30.08F
DETROIT        PTSUNNY   76  56  49 E10       30.08F
FLINT          CLOUDY    74  54  49 S14       30.06F
GROSSE ILE     PTSUNNY   73  61  64 SE6       30.07F
HILLSDALE      MOSUNNY   83  63  51 S10       30.05F
HOWELL         PTSUNNY   73  59  60 SE10      30.06F

CITY           SKY/WX    TMP DP  RH WIND       PRES   REMARKS
JACKSON        MOSUNNY   79  63  57 S10       30.05F
LAMBERTVILLE   MOSUNNY   79  61  53 E6        30.07F
LANSING        PTSUNNY   75  61  61 S12       30.04F
LAPEER         NOT AVBL
MASON          PTSUNNY   74  64  68 S7        30.05F
MONROE         MOSUNNY   75  61  60 E7        30.05F
MT. CLEMENS    PTSUNNY   72  53  51 SE9       30.08F
PONTIAC        PTSUNNY   73  50  44 SE9       30.07F
PORT HOPE        N/A     72  58  61 VRB7      30.05F
PORT HURON     PTSUNNY   73  57  56 S9G16     30.09F
TRI CITIES     CLOUDY    73  60  63 S13       30.04F
YPSILANTI      MOSUNNY   80  56  43 SE10      30.08F
$$
MIZ043>046-050>051-056>058-064>065-071>073-077>080-292100-
SOUTHWEST LOWER MICHIGAN

CITY           SKY/WX    TMP DP  RH WIND       PRES   REMARKS
BATTLE CREEK   CLOUDY    78  64  61 SE9       30.03F
BENTON HARBOR  CLOUDY    76  70  82 SE8       29.97F
BIG RAPIDS     LGT RAIN  65  64  98 SE6       29.98F
COLDWATER      PTSUNNY   84  66  55 S10       30.02F
HOLLAND        PTSUNNY   79  70  74 SE9       29.98F
GRAND RAPIDS   CLOUDY    72  71  97 SE6       30.01F
KALAMAZOO      CLOUDY    77  67  71 S5        30.02F
MARSHALL       PTSUNNY   78  65  63 SE8       30.02F
MUSKEGON       PTSUNNY   77  68  73 SE15      29.96F
$$
MIZ016>042-292100-
NORTHERN LOWER MICHIGAN

CITY           SKY/WX    TMP DP  RH WIND       PRES   REMARKS
ALPENA         PTSUNNY   66  62  87 SE14G22   30.03F
BEAVER ISLAND  CLOUDY    66  65  94 SE6       29.93S
BELLAIRE       MOSUNNY   77  64  64 S14G21    29.92F
CADILLAC       CLOUDY    70  63  78 S14       29.99F
CHARLEVOIX     PTSUNNY   74  67  78 SE14G20   29.94F
FRANKFORT      PTCLDY    80  66  60 S14       29.90F
GAYLORD        MOSUNNY   69  62  78 S16G25    29.99F
GRAYLING       PTSUNNY   70  62  76 S12G18    30.01F
HARBOR SPRINGS PTSUNNY   72  65  81 CALM      29.93F
HOUGHTON LAKE  CLOUDY    70  60  70 SE9       30.02F
MANISTEE       MOSUNNY   75  63  64 SE9G17    29.93F
OSCODA         CLOUDY    66  62  87 SE7       30.04F
PELLSTON       PTSUNNY   71  64  78 SE12      29.94F
TRAVERSE CITY  PTSUNNY   80  65  59 SE10G20   29.91F
$$
MIZ007>008-015-292100-
EASTERN UPPER MICHIGAN

CITY           SKY/WX    TMP DP  RH WIND       PRES   REMARKS
KINROSS        CLOUDY    61  61 100 SE18      29.96F
MACKINAC ISLAN CLOUDY    63  62  97 SE9G16    29.94F
NEWBERRY       CLOUDY    60  60  98 S6        29.93F FOG
S. S. MARIE    LGT RAIN  60  57  89 SE10G20   29.97F FOG
$$
MIZ004>006-011>014-085-292100-
CENTRAL UPPER MICHIGAN

CITY           SKY/WX    TMP DP  RH WIND       PRES   REMARKS
MANISTIQUE     CLOUDY    63  63  99 SE6       29.90F FOG
ESCANABA       CLOUDY    68  63  83 S7        29.87F
MENOMINEE      PTSUNNY   73  68  83 S10       29.85F
SAWYER-GWINN   CLOUDY    64  63  94 S13       29.87F FOG
$$
MIZ001>003-009>011-084-292100-
WESTERN UPPER MICHIGAN

CITY           SKY/WX    TMP DP  RH WIND       PRES   REMARKS
IRON MOUNTAIN  LGT RAIN  67  65  93 S7        29.85F FOG
HOUGHTON       CLOUDY    65  62  90 SE6       29.81F
COPPER HARBOR    N/A     63  59  87 VRB6      29.80F
$$

ABBREVIATIONS USED IN REMARKS
   TC - TEMPERATURE IN CELSIUS
  WCI - WIND CHILL INDEX
   HX - HEAT INDEX
  VSB - VISIBILITY



USA.gov is the U.S. government's official web portal to all federal, state and local government web resources and services.